When you browse on this site, cookies collect data to enhance your experience and personalize the content and advertising you see.
Visit our Privacy Policy to learn more. By continuing to use the site, you agree to this use of cookies and data.
  • In Italy
  • List of Countries
  • For 7 days
  • Water Temperature
  • Satellite Maps
  • Weather Map
  • Weather Widgets
  • user-avatar
    Login

    Hourly Weather Brest

    Today, 17 February, Sunday

    Time Temperature Precipitation Wind Pressure Humidity
    00:00 0°C° 0 mm 4 mps 754 mmHg 71%
    01:00 0°C° 0 mm 4 mps 754 mmHg 68%
    02:00 0°C° 0 mm 4 mps 754 mmHg 66%
    03:00 0°C° 0 mm 4 mps 753 mmHg 68%
    04:00 0°C° 0 mm 4 mps 753 mmHg 71%
    05:00 0°C° 0 mm 4 mps 753 mmHg 74%
    06:00 0°C° 0 mm 4 mps 753 mmHg 78%
    07:00 -1°C° 0 mm 4 mps 753 mmHg 83%
    08:00 -1°C° 0 mm 4 mps 753 mmHg 87%
    09:00 +1°C° 0 mm 4 mps 753 mmHg 84%
    10:00 +2°C° 0 mm 5 mps 753 mmHg 80%
    11:00 +3°C° 0 mm 5 mps 754 mmHg 76%
    12:00 +5°C° 0 mm 5 mps 754 mmHg 75%
    13:00 +6°C° 0 mm 5 mps 754 mmHg 73%
    14:00 +7°C° 0 mm 5 mps 754 mmHg 72%
    15:00 +7°C° 0 mm 4 mps 754 mmHg 75%
    16:00 +6°C° 0 mm 4 mps 754 mmHg 78%
    17:00 +6°C° 0 mm 4 mps 754 mmHg 80%
    18:00 +7°C° 0 mm 3 mps 754 mmHg 83%
    19:00 +5°C° 0 mm 3 mps 754 mmHg 85%
    20:00 +4°C° 0 mm 3 mps 754 mmHg 87%
    21:00 +5°C° 0 mm 2 mps 754 mmHg 87%
    22:00 +5°C° 0 mm 2 mps 754 mmHg 87%
    23:00 +4°C° 0 mm 2 mps 754 mmHg 87%

    Tomorrow, 18 February, Monday

    Time Temperature Precipitation Wind Pressure Humidity
    00:00 +4°C° 0 mm 2 mps 755 mmHg 87%
    01:00 +4°C° 0 mm 2 mps 755 mmHg 87%
    02:00 +4°C° 0 mm 2 mps 755 mmHg 87%
    03:00 +4°C° 0 mm 2 mps 755 mmHg 87%
    04:00 +4°C° 0 mm 2 mps 755 mmHg 88%
    05:00 +3°C° 0 mm 2 mps 755 mmHg 88%
    06:00 +3°C° 0 mm 2 mps 755 mmHg 90%
    07:00 +3°C° 0 mm 1 mps 755 mmHg 91%
    08:00 +3°C° 0 mm 1 mps 755 mmHg 92%
    09:00 +4°C° 0 mm 1 mps 755 mmHg 88%
    10:00 +5°C° 0 mm 1 mps 755 mmHg 84%
    11:00 +5°C° 0 mm 0 mps 756 mmHg 80%
    12:00 +5°C° 0 mm 0 mps 755 mmHg 76%
    13:00 +6°C° 0 mm 0 mps 755 mmHg 73%
    14:00 +6°C° 0 mm 0 mps 755 mmHg 69%
    15:00 +7°C° 0 mm 1 mps 755 mmHg 70%
    16:00 +7°C° 0 mm 1 mps 755 mmHg 71%
    17:00 +7°C° 0 mm 1 mps 755 mmHg 72%
    18:00 +6°C° 0 mm 1 mps 755 mmHg 76%
    19:00 +4°C° 0 mm 2 mps 755 mmHg 80%
    20:00 +4°C° 0 mm 2 mps 755 mmHg 84%
    21:00 +3°C° 0 mm 2 mps 755 mmHg 86%
    22:00 +3°C° 0 mm 2 mps 755 mmHg 87%
    23:00 +1°C° 0 mm 3 mps 754 mmHg 89%

    Day after tomorrow, 19 February, Tuesday

    Time Temperature Precipitation Wind Pressure Humidity
    00:00 +1°C° 0 mm 3 mps 754 mmHg 90%
    01:00 +1°C° 0 mm 3 mps 754 mmHg 91%
    02:00 +1°C° 0 mm 3 mps 754 mmHg 91%
    03:00 0°C° 0 mm 3 mps 754 mmHg 92%
    04:00 0°C° 0 mm 3 mps 753 mmHg 92%
    05:00 0°C° 0 mm 3 mps 753 mmHg 93%
    06:00 0°C° 0 mm 3 mps 753 mmHg 93%
    07:00 0°C° 0 mm 3 mps 753 mmHg 93%
    08:00 -1°C° 0 mm 4 mps 752 mmHg 94%
    09:00 0°C° 0 mm 4 mps 752 mmHg 88%
    10:00 +1°C° 0 mm 4 mps 752 mmHg 83%
    11:00 +4°C° 0 mm 4 mps 752 mmHg 77%
    12:00 +5°C° 0 mm 4 mps 751 mmHg 72%
    13:00 +6°C° 0 mm 4 mps 751 mmHg 66%
    14:00 +7°C° 0 mm 5 mps 750 mmHg 61%
    15:00 +7°C° 0 mm 4 mps 750 mmHg 62%
    16:00 +7°C° 0 mm 4 mps 750 mmHg 63%
    17:00 +8°C° 0 mm 3 mps 749 mmHg 63%
    18:00 +6°C° 0 mm 4 mps 749 mmHg 67%
    19:00 +5°C° 0 mm 4 mps 749 mmHg 72%
    20:00 +4°C° 0 mm 4 mps 749 mmHg 76%
    21:00 +4°C° 0 mm 4 mps 749 mmHg 77%
    22:00 +3°C° 0 mm 4 mps 749 mmHg 78%
    23:00 +3°C° 0 mm 4 mps 749 mmHg 79%

    20 February, Wednesday

    Time Temperature Precipitation Wind Pressure Humidity
    00:00 +3°C° 0 mm 4 mps 749 mmHg 80%
    01:00 +1°C° 0 mm 4 mps 749 mmHg 82%
    02:00 +1°C° 0 mm 4 mps 749 mmHg 84%
    03:00 +1°C° 0 mm 4 mps 749 mmHg 87%
    04:00 +1°C° 0 mm 4 mps 749 mmHg 89%
    05:00 +3°C° 0 mm 4 mps 749 mmHg 92%
    06:00 +1°C° 0 mm 4 mps 749 mmHg 92%
    07:00 +1°C° 0 mm 4 mps 750 mmHg 92%
    08:00 0°C° 0 mm 4 mps 750 mmHg 92%
    09:00 +1°C° 0 mm 5 mps 750 mmHg 87%
    10:00 +2°C° 0 mm 6 mps 750 mmHg 82%
    11:00 +3°C° 0 mm 7 mps 751 mmHg 77%
    12:00 +3°C° 0 mm 7 mps 751 mmHg 77%
    13:00 +3°C° 0 mm 7 mps 751 mmHg 76%
    14:00 +3°C° 0 mm 7 mps 751 mmHg 76%
    15:00 +3°C° 0 mm 6 mps 751 mmHg 76%
    16:00 +3°C° 0 mm 6 mps 751 mmHg 76%
    17:00 +3°C° 0 mm 6 mps 751 mmHg 76%
    18:00 +2°C° 0 mm 6 mps 751 mmHg 77%
    19:00 +2°C° 0 mm 6 mps 751 mmHg 77%
    20:00 +2°C° 0 mm 5 mps 751 mmHg 78%
    21:00 +2°C° 0 mm 5 mps 751 mmHg 79%
    22:00 +1°C° 0 mm 5 mps 751 mmHg 81%
    23:00 +1°C° 0 mm 5 mps 751 mmHg 83%

    21 February, Thursday

    Time Temperature Precipitation Wind Pressure Humidity
    00:00 +1°C° 0 mm 5 mps 751 mmHg 85%
    01:00 +1°C° 0 mm 5 mps 751 mmHg 88%
    02:00 +1°C° 0 mm 5 mps 751 mmHg 91%
    03:00 +1°C° 0 mm 5 mps 751 mmHg 92%
    04:00 +1°C° 0 mm 4 mps 751 mmHg 93%
    05:00 +1°C° 0 mm 4 mps 751 mmHg 94%
    06:00 +1°C° 0 mm 4 mps 751 mmHg 94%
    07:00 +1°C° 0 mm 4 mps 751 mmHg 94%
    08:00 +3°C° 0 mm 4 mps 751 mmHg 95%
    09:00 +3°C° 0.3 mm 4 mps 751 mmHg 93%
    10:00 +3°C° 0.3 mm 4 mps 752 mmHg 92%
    11:00 +2°C° 0.3 mm 5 mps 752 mmHg 90%
    12:00 +3°C° 0.3 mm 5 mps 751 mmHg 88%
    13:00 +3°C° 0.3 mm 5 mps 751 mmHg 87%
    14:00 +5°C° 0.3 mm 5 mps 751 mmHg 85%
    15:00 +3°C° 0.1 mm 5 mps 751 mmHg 86%
    16:00 +4°C° 0.1 mm 4 mps 751 mmHg 86%
    17:00 +4°C° 0.1 mm 4 mps 751 mmHg 87%
    18:00 +4°C° 0.2 mm 3 mps 751 mmHg 89%
    19:00 +4°C° 0.2 mm 3 mps 751 mmHg 90%
    20:00 +4°C° 0.2 mm 2 mps 751 mmHg 92%
    21:00 +4°C° 0 mm 2 mps 751 mmHg 92%
    22:00 +4°C° 0 mm 2 mps 751 mmHg 93%
    23:00 +4°C° 0 mm 2 mps 751 mmHg 94%

    22 February, Friday

    Time Temperature Precipitation Wind Pressure Humidity
    00:00 +4°C° 0.1 mm 2 mps 751 mmHg 95%
    01:00 +4°C° 0.1 mm 1 mps 751 mmHg 96%
    02:00 +4°C° 0.1 mm 1 mps 751 mmHg 97%
    03:00 +3°C° 0.5 mm 2 mps 751 mmHg 96%
    04:00 +3°C° 0.5 mm 2 mps 751 mmHg 95%
    05:00 +1°C° 0.5 mm 3 mps 751 mmHg 94%
    06:00 -1°C° 0.8 mm 4 mps 751 mmHg 93%
    07:00 -2°C° 0.8 mm 5 mps 751 mmHg 92%
    08:00 -4°C° 0.8 mm 7 mps 751 mmHg 91%
    09:00 -4°C° 0.4 mm 7 mps 752 mmHg 88%
    10:00 -4°C° 0.4 mm 7 mps 753 mmHg 85%
    11:00 -6°C° 0.4 mm 8 mps 754 mmHg 82%
    12:00 -6°C° 0.1 mm 8 mps 755 mmHg 77%
    13:00 -5°C° 0.1 mm 8 mps 756 mmHg 73%
    14:00 -5°C° 0.1 mm 8 mps 757 mmHg 68%
    15:00 -6°C° 0 mm 7 mps 758 mmHg 64%
    16:00 -6°C° 0 mm 7 mps 759 mmHg 61%
    17:00 -7°C° 0 mm 7 mps 761 mmHg 57%
    18:00 -6°C° 0 mm 6 mps 762 mmHg 57%
    19:00 -7°C° 0 mm 5 mps 763 mmHg 58%
    20:00 -8°C° 0 mm 5 mps 764 mmHg 58%
    21:00 -8°C° 0 mm 5 mps 764 mmHg 58%
    22:00 -8°C° 0 mm 5 mps 765 mmHg 58%
    23:00 -8°C° 0 mm 4 mps 766 mmHg 58%
    Show more